Station RDDA2 - 9491094 - Red Dog Dock, AK Image indicating link to RSS feed of recent meteorological observations for station RDDA2


Conditions at RDDA2 as of
(11:00 pm AKDT on 04/22/2024)
0700 GMT on 04/23/2024:
     

Click on the graph icon in the table below to see a time series plot of the last five days of that observation.

5-day plot - Wind Direction Wind Direction (WDIR):SSE ( 150 deg true )
5-day plot - Wind Speed Wind Speed (WSPD): 6.0 kts
5-day plot - Wind Gust Wind Gust (GST): 6.0 kts
5-day plot - Atmospheric Pressure Atmospheric Pressure (PRES):29.92 in
5-day plot - Pressure Tendency Pressure Tendency (PTDY):+0.00 in ( Steady )
5-day plot - Air Temperature Air Temperature (ATMP): 21.9 °F
5-day plot - Water Temperature Water Temperature (WTMP): 28.9 °F
5-day plot - Wind Chill Wind Chill (CHILL): 13.5 °F
5-day plot - Wind Speed at 10 Meters Wind Speed at 10 meters (WSPD10M): 5.8 kts
5-day plot - Wind Speed at 20 Meters Wind Speed at 20 meters (WSPD20M): 5.8 kts
5-day plot -  Wind Speed, Wind Gust and Atmospheric Pressure Combined plot of Wind Speed, Gust, and Air Pressure
NOS Water Level Observation Network Water Level
Previous observations
TIME
(AKDT)
5-day plot - Wind Direction
WDIR
 
5-day plot - Wind Speed
WSPD
kts
5-day plot - Wind Gust
GST
kts
5-day plot - Wave Height
WVHT
ft
5-day plot - Dominant Wave Period
DPD
sec
5-day plot - Average Wave Period
APD
sec
5-day plot - Mean Wave Direction
MWD
 
5-day plot - Atmospheric Pressure
PRES
in
5-day plot - Pressure Tendency
PTDY
in
5-day plot - Air Temperature
ATMP
°F
5-day plot - Water Temperature
WTMP
°F
5-day plot - Dew Point
DEWP
°F
5-day plot - Salinity
SAL
psu
5-day plot - Visibility
VIS
nmi
5-day plot - Tide (above MLLW)
TIDE
ft
2024-04-22 10:54 pmSSE 5.1 6.0----29.92- 21.9 28.9----
2024-04-22 10:48 pm S 2.9 5.1----29.92- 21.9 28.9----
2024-04-22 10:42 pm S 4.1 6.0----29.92- 21.9 28.9----
2024-04-22 10:36 pmSSE 6.0 7.0----29.92- 21.9 28.8----
2024-04-22 10:30 pm S 5.1 8.0----29.92- 21.9 28.9----
2024-04-22 10:24 pmSSE 6.0 8.0----29.92- 21.9 28.9----
2024-04-22 10:18 pm S 4.1 6.0----29.92- 21.9 28.9----
2024-04-22 10:12 pm S 5.1 6.0----29.92- 21.7 28.9----
2024-04-22 10:06 pm S 4.1 7.0----29.92- 21.7 28.8----
2024-04-22 10:00 pmSSE 6.0 7.0----29.92+0.00 21.7 28.9----
2024-04-22 09:54 pm S 2.9 5.1----29.92- 21.7 28.9----
2024-04-22 09:48 pm S 5.1 7.0----29.93- 21.7 28.9----
2024-04-22 09:42 pm S 6.0 7.0----29.93- 21.7 28.9----
2024-04-22 09:36 pm S 2.9 6.0----29.92- 21.9 28.9----
2024-04-22 09:30 pm S 5.1 6.0----29.92- 21.7 28.9----
2024-04-22 09:24 pm S 4.1 7.0----29.93- 21.7 28.9----
2024-04-22 09:18 pm S 4.1 6.0----29.92- 21.7 28.9----
2024-04-22 09:12 pm S 4.1 7.0----29.93- 21.7 28.9----
2024-04-22 09:06 pm S 5.1 7.0----29.92- 21.7 28.9----
2024-04-22 09:00 pm S 5.1 7.0----29.92+0.00 21.7 28.9----
2024-04-22 08:54 pm S 5.1 7.0----29.92- 21.9 28.9----
2024-04-22 08:48 pm S 6.0 8.0----29.92- 21.7 28.9----
2024-04-22 08:42 pm S 7.0 8.9----29.92- 21.9 28.9----
2024-04-22 08:36 pm S 4.1 8.0----29.92- 22.1 28.9----
2024-04-22 08:30 pm S 6.0 8.9----29.92- 21.9 28.9----
2024-04-22 08:24 pm S 5.1 8.9----29.92- 21.9 28.9----
2024-04-22 08:18 pm S 7.0 9.9----29.92- 21.9 28.9----
2024-04-22 08:12 pm S 5.1 8.9----29.92- 22.1 28.9----
2024-04-22 08:06 pm S 6.0 8.9----29.92- 22.1 28.9----
2024-04-22 08:00 pm S 7.0 8.9----29.92+0.00 22.1 28.9----
2024-04-22 07:54 pm S 7.0 8.9----29.92- 22.1 28.9----
2024-04-22 07:48 pm S 7.0 9.9----29.92- 22.1 28.9----
2024-04-22 07:42 pm S 5.1 9.9----29.92- 22.1 28.9----
2024-04-22 07:36 pm S 5.1 8.9----29.92- 22.1 28.9----
2024-04-22 07:30 pm S 7.0 9.9----29.92- 22.3 28.9----
2024-04-22 07:24 pm S 6.0 9.9----29.92- 22.3 28.9----
2024-04-22 07:18 pm S 7.0 9.9----29.92- 22.1 28.9----
2024-04-22 07:12 pm S 6.0 8.9----29.92- 22.1 28.9----
2024-04-22 07:06 pm S 8.0 9.9----29.92- 22.1 28.9----
2024-04-22 07:00 pmSSW 7.0 8.9----29.92+0.00 22.1 28.9----
2024-04-22 06:54 pm S 6.0 12.0----29.92- 22.5 28.9----
2024-04-22 06:48 pm S 7.0 11.1----29.92- 22.5 28.9----
2024-04-22 06:42 pm S 7.0 9.9----29.92- 22.5 28.9----
2024-04-22 06:36 pm S 7.0 9.9----29.92- 22.6 28.9----
2024-04-22 06:30 pm S 6.0 8.9----29.92- 22.5 28.9----
2024-04-22 06:24 pm S 7.0 8.9----29.92- 22.5 28.9----
2024-04-22 06:18 pm S 6.0 9.9----29.92- 22.6 28.9----
2024-04-22 06:12 pm S 6.0 9.9----29.92- 22.8 28.9----
2024-04-22 06:06 pm S 8.0 11.1----29.92- 22.6 28.9----
2024-04-22 06:00 pm S 8.9 11.1----29.92+0.00 22.6 28.9----
2024-04-22 05:54 pm S 8.0 11.1----29.92- 22.6 28.9----
2024-04-22 05:48 pm S 6.0 9.9----29.92- 22.6 28.9----
2024-04-22 05:42 pm S 6.0 11.1----29.92- 22.3 28.9----
2024-04-22 05:36 pm S 6.0 9.9----29.92- 22.5 28.9----
2024-04-22 05:30 pm S 7.0 12.0----29.92- 22.6 28.9----
2024-04-22 05:24 pm S 8.0 12.0----29.93- 22.5 28.9----
2024-04-22 05:18 pm S 8.0 11.1----29.93-- 28.9----
2024-04-22 05:12 pm S 9.9 12.0----29.93-- 28.9----
2024-04-22 05:06 pm S 8.0 12.0----29.93-- 28.9----
2024-04-22 05:00 pm S 9.9 12.0----29.93+0.00 22.5 28.9----
2024-04-22 04:54 pm S 7.0 9.9----29.93- 22.5 28.9----
2024-04-22 04:48 pm S 6.0 11.1----29.93-- 28.9----
2024-04-22 04:42 pm S 8.9 12.0----29.93-- 28.9----
2024-04-22 04:36 pm S 8.0 11.1----29.93-- 28.9----
2024-04-22 04:30 pm S 8.0 12.0----29.93- 22.1 28.9----
2024-04-22 04:24 pm S 8.9 13.0----29.93- 22.5 28.9----
2024-04-22 04:18 pm--------- 22.3 28.9----
2024-04-22 04:12 pm--------- 22.5 28.9----
2024-04-22 04:06 pm--------- 22.8 28.9----
2024-04-22 04:00 pm S 9.9 14.0----29.93+0.01 22.6 28.9----
2024-04-22 03:54 pm S 12.0 14.0----29.93- 22.3 28.9----
2024-04-22 03:48 pm S 11.1 15.0----29.93- 22.5 28.9----
2024-04-22 03:42 pm S 8.9 12.0----29.93- 22.6 28.9----
2024-04-22 03:36 pm S 9.9 15.0----29.93- 22.5 28.9----
2024-04-22 03:30 pm S 8.0 13.0----29.93- 22.6 28.9----
2024-04-22 03:24 pm S 8.9 15.0----29.93- 22.3 28.9----
2024-04-22 03:18 pm S 11.1 13.0----29.93- 22.6 28.9----
2024-04-22 03:12 pm S 8.9 14.0----29.93- 22.6 28.9----
2024-04-22 03:06 pm S 11.1 14.0----29.93- 22.1 28.9----
2024-04-22 03:00 pm S 8.9 13.0----29.93+0.02 22.5 28.9----
2024-04-22 02:54 pm S 11.1 13.0----29.93- 22.5 28.9----
2024-04-22 02:48 pm S 8.0 14.0----29.93- 22.6 28.9----
2024-04-22 02:42 pm S 8.0 13.0----29.93- 22.6 28.9----
2024-04-22 02:36 pm S 8.9 13.0----29.93- 22.5 28.9----
2024-04-22 02:30 pm S 7.0 13.0----29.93- 22.6 28.9----
2024-04-22 02:24 pm S 9.9 14.0----29.93- 22.6 28.9----
2024-04-22 02:18 pm S 8.0 12.0----29.93- 22.8 28.9----
2024-04-22 02:12 pm S 7.0 12.0----29.93- 22.8 28.9----
2024-04-22 02:06 pmSSW 8.0 8.9----29.93- 22.6 28.9----
2024-04-22 02:00 pm S 7.0 9.9----29.92+0.02 23.5 28.9----
2024-04-22 01:54 pm S 6.0 9.9----29.92- 23.7 28.9----
2024-04-22 01:48 pm S 6.0 9.9----29.92- 24.1 28.9----
2024-04-22 01:42 pm S 7.0 12.0----29.92- 24.6 28.9----
2024-04-22 01:36 pm S 8.0 17.1----29.92- 25.2 28.9----
2024-04-22 01:30 pmSSE 14.0 17.1----29.92- 27.0 28.9----
2024-04-22 01:24 pm S 13.0 18.1----29.92- 27.0 28.9----
2024-04-22 01:18 pmSSE 15.9 19.0----29.92- 27.0 28.9----
2024-04-22 01:12 pmSSE 15.0 19.0----29.92- 27.1 28.9----
2024-04-22 01:06 pmSSE 15.9 19.0----29.91- 27.1 28.9----
2024-04-22 01:00 pmSSE 15.9 18.1----29.92+0.01 27.3 28.9----
2024-04-22 12:54 pmSSE 15.0 17.1----29.91- 27.1 28.9----
2024-04-22 12:48 pmSSE 15.0 17.1----29.91- 27.3 28.9----
2024-04-22 12:42 pmSSE 12.0 17.1----29.92- 27.7 28.9----
2024-04-22 12:36 pmSSE 12.0 15.9----29.91- 27.9 28.9----
2024-04-22 12:30 pmSSE 12.0 14.0----29.91- 28.0 28.9----
2024-04-22 12:24 pmSSE 8.0 11.1----29.91- 28.0 28.9----
2024-04-22 12:18 pm S 2.9 5.1----29.91- 27.3 28.9----
2024-04-22 12:12 pm- 0.0 1.9----29.91- 28.0 28.9----
2024-04-22 12:06 pmWNW 1.0 1.9----29.91- 29.3 28.9----
2024-04-22 12:00 pmWNW 1.9 2.9----29.91+0.01 28.8 28.9----
2024-04-22 11:54 am NW 1.9 1.9----29.91- 27.7 28.9----
2024-04-22 11:48 amWNW 1.9 2.9----29.91- 27.5 28.9----
2024-04-22 11:42 am NW 1.9 2.9----29.91- 26.8 28.9----
2024-04-22 11:36 amWNW 1.0 1.9----29.90- 27.3 28.9----
2024-04-22 11:30 am NW 1.9 1.9----29.90- 26.2 28.9----
2024-04-22 11:24 amNNW 1.9 1.9----29.90- 26.1 28.9----
2024-04-22 11:18 am NW 1.0 1.9----29.90- 26.4 28.9----
2024-04-22 11:12 am NW 1.9 2.9----29.90- 25.9 28.9----
2024-04-22 11:06 amWNW 1.9 1.9----29.90- 26.8 28.9----
2024-04-22 11:00 amWNW 1.9 1.9----29.90+0.00 26.1 28.9----
2024-04-22 10:54 am W 1.9 2.9----29.90- 26.1 28.9----
2024-04-22 10:48 am W 1.9 2.9----29.90- 26.2 28.9----
2024-04-22 10:42 am W 1.0 1.9----29.90- 27.0 28.9----
2024-04-22 10:36 am W 1.9 1.9----29.90- 26.6 28.9----
2024-04-22 10:30 am W 1.0 1.9----29.90- 27.0 28.9----
2024-04-22 10:24 am W 1.0 1.9----29.90- 26.2 28.9----
2024-04-22 10:18 am- 0.0 1.9----29.90- 25.0 28.9----
2024-04-22 10:12 am NW 1.9 1.9----29.90- 24.6 28.9----
2024-04-22 10:06 am NW 1.0 1.9----29.90- 24.4 28.9----
2024-04-22 10:00 am NW 1.9 1.9----29.90+0.00 23.7 28.9----
2024-04-22 09:54 amWNW 1.9 2.9----29.90- 24.1 28.9----
2024-04-22 09:48 am W 2.9 4.1----29.90- 23.7 28.9----
2024-04-22 09:42 am W 1.9 2.9----29.90- 23.5 28.9----
2024-04-22 09:36 am W 1.9 2.9----29.90- 24.1 28.9----
2024-04-22 09:30 amWNW 1.9 2.9----29.90- 23.9 28.9----
2024-04-22 09:24 am W 1.9 1.9----29.90- 23.4 28.9----
2024-04-22 09:18 am- 0.0 1.9----29.90- 23.0 28.9----
2024-04-22 09:12 am- 0.0 1.9----29.90- 21.6 28.9----
2024-04-22 09:06 am- 0.0 1.0----29.90- 23.9 28.9----
2024-04-22 09:00 am- 0.0 1.9----29.90+0.00 23.5 28.9----
2024-04-22 08:54 am- 0.0 1.0----29.90- 23.5 28.9----
2024-04-22 08:48 am- 0.0 1.0----29.90- 23.5 28.9----
2024-04-22 08:42 amWNW 1.0 1.9----29.90- 23.5 28.9----
2024-04-22 08:36 am W 1.0 1.9----29.89- 23.2 28.9----
2024-04-22 08:30 am W 1.0 1.9----29.89- 23.5 28.9----
2024-04-22 08:24 amWNW 1.9 1.9----29.89- 22.6 28.9----
2024-04-22 08:18 am NW 1.0 1.9----29.89- 22.6 28.9----
2024-04-22 08:12 am- 0.0 1.0----29.89- 22.3 28.9----
2024-04-22 08:06 am- 0.0 1.0----29.89- 21.6 28.9----
2024-04-22 08:00 am- 0.0 0.0----29.90-0.01 21.0 28.9----
2024-04-22 07:54 am- 0.0 0.0----29.90- 21.0 28.9----
2024-04-22 07:48 am- 0.0 1.9----29.90- 20.8 28.9----
2024-04-22 07:42 amSSE 1.0 1.9----29.90- 20.5 28.9----
2024-04-22 07:36 am- 0.0 1.9----29.90- 20.1 28.9----
2024-04-22 07:30 am SE 1.9 2.9----29.90- 19.9 28.9----
2024-04-22 07:24 amSSE 1.9 1.9----29.90- 19.9 28.9----
2024-04-22 07:18 am SE 1.0 1.9----29.90- 19.6 28.9----
2024-04-22 07:12 am SE 1.0 1.9----29.90- 19.6 28.9----
2024-04-22 07:06 amSSE 1.0 1.9----29.90- 19.6 28.9----
2024-04-22 07:00 am S 2.9 2.9----29.90-0.01 19.6 28.9----
2024-04-22 06:54 am S 1.9 2.9----29.90- 20.1 28.9----
2024-04-22 06:48 am S 1.9 2.9----29.90- 19.6 28.9----
2024-04-22 06:42 amSSW 1.0 2.9----29.90- 19.8 28.9----
2024-04-22 06:36 am S 1.9 2.9----29.90- 19.8 28.9----
2024-04-22 06:30 amSSE 1.9 2.9----29.90- 19.8 28.9----
2024-04-22 06:24 amSSE 1.9 2.9----29.90- 19.9 28.9----
2024-04-22 06:18 am S 1.0 1.0----29.90- 20.3 28.9----
2024-04-22 06:12 am- 0.0 1.0----29.90- 21.2 28.9----
2024-04-22 06:06 am- 0.0 1.0----29.90- 21.6 28.9----
2024-04-22 06:00 am- 0.0 2.9----29.90+0.00 22.3 28.9----
2024-04-22 05:54 am NE 2.9 4.1----29.90- 21.9 28.9----
2024-04-22 05:48 am NE 4.1 4.1----29.90- 21.2 28.9----
2024-04-22 05:42 am NE 2.9 2.9----29.91- 21.6 28.9----
2024-04-22 05:36 am E 1.0 1.9----29.91- 22.5 28.9----
2024-04-22 05:30 am- 0.0 1.0----29.91- 22.6 28.9----
2024-04-22 05:24 am- 0.0 1.0----29.91- 22.5 28.9----
2024-04-22 05:18 am- 0.0 0.0----29.91- 22.1 28.9----
2024-04-22 05:12 am- 0.0 1.9----29.91- 22.3 28.9----
2024-04-22 05:06 am- 0.0 1.9----29.91- 22.3 28.9----
2024-04-22 05:00 am- 0.0 1.9----29.91+0.00 22.1 28.9----
2024-04-22 04:54 am- 0.0 2.9----29.91- 22.1 28.9----
2024-04-22 04:48 amNNE 4.1 5.1----29.91- 22.3 28.9----
2024-04-22 04:42 amNNE 5.1 6.0----29.91- 22.6 28.9----
2024-04-22 04:36 am NE 4.1 6.0----29.91- 23.2 28.9----
2024-04-22 04:30 amNNE 5.1 7.0----29.91- 22.6 28.9----
2024-04-22 04:24 amNNE 5.1 8.0----29.91- 23.0 28.9----
2024-04-22 04:18 amNNE 7.0 8.9----29.91- 22.3 28.9----
2024-04-22 04:12 am NE 6.0 9.9----29.91- 22.6 28.9----
2024-04-22 04:06 am NE 6.0 11.1----29.91- 22.6 28.9----
2024-04-22 04:00 am NE 7.0 9.9----29.91-0.02 23.0 28.9----
2024-04-22 03:54 am NE 8.0 13.0----29.91- 23.0 28.9----
2024-04-22 03:48 am NE 12.0 14.0----29.91- 22.8 28.9----
2024-04-22 03:42 am NE 11.1 14.0----29.91- 22.8 28.9----
2024-04-22 03:36 am NE 12.0 15.0----29.91- 22.8 28.9----
2024-04-22 03:30 am NE 12.0 15.0----29.91- 22.6 28.9----
2024-04-22 03:24 am NE 12.0 15.9----29.90- 22.5 28.9----
2024-04-22 03:18 am NE 14.0 18.1----29.90- 22.5 28.9----
2024-04-22 03:12 am NE 15.0 17.1----29.91- 22.5 28.9----
2024-04-22 03:06 am NE 14.0 17.1----29.91- 22.8 28.9----
2024-04-22 03:00 am NE 15.0 18.1----29.91-0.02 23.2 28.9----
2024-04-22 02:54 amNNE 14.0 18.1----29.91- 22.8 28.9----
2024-04-22 02:48 amNNE 15.9 18.1----29.91- 23.0 28.9----
2024-04-22 02:42 amNNE 15.9 19.0----29.91- 23.0 28.9----
2024-04-22 02:36 amNNE 15.9 19.0----29.91- 23.0 28.9----
2024-04-22 02:30 amNNE 15.0 19.0----29.91- 23.0 28.9----
2024-04-22 02:24 amNNE 13.0 17.1----29.91- 23.0 28.9----
2024-04-22 02:18 amNNE 15.9 19.0----29.91- 23.2 28.9----
2024-04-22 02:12 amNNE 15.0 19.0----29.91- 23.2 28.9----
2024-04-22 02:06 amNNE 15.9 21.0----29.91- 23.0 28.9----
2024-04-22 02:00 amNNE 15.9 21.0----29.91-0.02 23.4 28.9----
2024-04-22 01:54 amNNE 15.9 21.0----29.91- 23.5 28.9----
2024-04-22 01:48 amNNE 15.0 19.0----29.91- 23.9 28.9----
2024-04-22 01:42 amNNE 15.9 20.0----29.91- 24.3 28.9----
2024-04-22 01:36 amNNE 15.0 19.0----29.91- 24.1 28.9----
2024-04-22 01:30 amNNE 15.0 22.0----29.92- 23.7 28.9----
2024-04-22 01:24 amNNE 8.9 15.0----29.92- 22.1 28.9----
2024-04-22 01:18 amNNE 12.0 17.1----29.92- 22.3 28.9----
2024-04-22 01:12 am N 9.9 13.0----29.92- 19.9 28.9----
2024-04-22 01:06 am N 8.0 9.9----29.92- 17.1 28.9----
2024-04-22 01:00 am N 6.0 9.9----29.93-0.01 17.1 28.9----
2024-04-22 12:54 am N 8.9 11.1----29.92- 16.9 28.9----
2024-04-22 12:48 amNNW 8.9 12.0----29.92- 17.2 28.9----
2024-04-22 12:42 am N 9.9 11.1----29.92- 18.7 28.9----
2024-04-22 12:36 am N 8.9 11.1----29.93- 18.3 28.9----
2024-04-22 12:30 am N 9.9 11.1----29.93- 18.3 28.9----
2024-04-22 12:24 amNNW 8.9 9.9----29.93- 16.9 28.9----
2024-04-22 12:18 am N 8.9 11.1----29.93- 16.7 28.9----
2024-04-22 12:12 amNNW 9.9 9.9----29.93- 16.0 28.9----
2024-04-22 12:06 amNNW 8.0 9.9----29.93- 16.3 28.9----
2024-04-22 12:00 amNNW 8.9 9.9----29.93+0.00 16.7 28.9----
2024-04-21 11:54 pmNNW 8.9 11.1----29.93- 16.7 28.9----
2024-04-21 11:48 pmNNW 9.9 11.1----29.93- 16.7 28.9----
2024-04-21 11:42 pmNNW 9.9 11.1----29.93- 17.1 28.9----
2024-04-21 11:36 pmNNW 9.9 9.9----29.93- 17.8 28.9----
2024-04-21 11:30 pmNNW 9.9 11.1----29.93- 17.6 28.9----
2024-04-21 11:24 pmNNW 9.9 12.0----29.93- 18.0 28.9----
2024-04-21 11:18 pmNNW 12.0 12.0----29.93- 18.1 28.9----
2024-04-21 11:12 pmNNW 11.1 13.0----29.93- 18.3 28.9----
2024-04-21 11:06 pmNNW 13.0 13.0----29.93- 18.1 28.9----
2024-04-21 11:00 pmNNW 12.0 13.0----29.93+0.00 17.8 28.9----
2024-04-21 10:54 pmNNW 11.1 13.0----29.93- 17.6 28.9----